2019-071N (45123 NORAD) Tracking and Keplerian Element Data

This shows tracking and keplerian element data for the satellite.

Feedback or suggestion? Click here.




ElementValue
Catalog45123
Name2019-071N
Epoch Orbit154
Epoch Day47.91182263
Epoch Year2020
RAAN230.4292
Inclination51.6429
Eccentricity0.0009983
Argument of Perigee310.5491
Mean Anonmoly49.4621
Mean Motion15.33194841
Decay Rate1.235E-05
L11 45123U 19071N 20047.91182263 .00001235 00000-0 49473-4 0 9990
L22 45123 51.6429 230.4292 0009983 310.5491 49.4621 15.33194841 1543

Live tracking and technical data element details for 2019-071N (NORAD 45123). 2019-071N can be tracked NOW for your location showing map with azimuth and elevation plus other details from your city location.

Track the satellite on the map from your city or location and see movement details for azimuth, elevation, latitude, longitude, range, height, and movement on the map or in text.







IsCatalogInMostPopularTable: catalog: 45123, numindb: -1

Insert: records affected: 1


GetName: 45123 2019-071N

Hit Count: inserted at: Mon, 17 Feb 2020 23:55:30 GMT